Zurück zum Katalog

DELTA 4 R/B

LostMEO
NORAD 38834·ROCKET BODY·🇺🇸 United States

Gestartet Oct 4, 2012 von Cape Canaveral Space Force Station

Loading…

Nächste Überflüge (nächste 24 Stunden)

TLE

VeraltetSource: Space-Track

Epoche: Aug 5, 2026, 08:31 UTC

1 38834U 12053B   26217.35530902  .00000052  00000-0  00000+0 0  9998
2 38834  52.8657 163.4058 0209710 130.8946  53.0237  1.89445614 95734

Verfolge DELTA 4 R/B in Echtzeit mit AllMySat

Download on the App Store